TimeCST,TemperatureF,Dew PointF,Humidity,Sea Level PressureIn,VisibilityMPH,Wind Direction,Wind SpeedMPH,Gust SpeedMPH,PrecipitationIn,Events,Conditions,WindDirDegrees,DateUTC
12:16 AM,34.5,33.8,97,29.56,7.0,SE,9.2,-,N/A,,Overcast,140,2013-01-11 06:16:00
12:35 AM,34.2,33.3,97,29.56,7.0,SE,9.2,-,N/A,,Overcast,140,2013-01-11 06:35:00
12:56 AM,35.6,34.0,94,29.56,10.0,SSE,3.5,-,N/A,,Overcast,160,2013-01-11 06:56:00
1:16 AM,35.6,34.0,94,29.56,10.0,SSE,4.6,-,N/A,,Overcast,160,2013-01-11 07:16:00
1:36 AM,35.6,34.0,94,29.55,10.0,SSE,5.8,-,N/A,,Overcast,150,2013-01-11 07:36:00
1:55 AM,35.6,34.2,94,29.54,10.0,SSE,6.9,-,N/A,,Overcast,160,2013-01-11 07:55:00
2:15 AM,35.1,33.8,95,29.54,7.0,SSE,5.8,-,N/A,,Overcast,150,2013-01-11 08:15:00
2:36 AM,35.6,34.3,95,29.54,7.0,SSE,6.9,-,N/A,,Overcast,160,2013-01-11 08:36:00
2:55 AM,35.6,34.5,96,29.53,7.0,South,8.1,-,N/A,,Overcast,170,2013-01-11 08:55:00
3:15 AM,35.2,34.3,97,29.53,5.0,South,6.9,-,N/A,,Overcast,170,2013-01-11 09:15:00
3:36 AM,35.1,34.7,99,29.53,4.0,South,6.9,-,N/A,,Overcast,170,2013-01-11 09:36:00
3:55 AM,34.9,34.7,99,29.51,4.0,SSE,8.1,-,N/A,,Overcast,160,2013-01-11 09:55:00
4:16 AM,35.1,34.7,99,29.52,5.0,South,3.5,-,N/A,,Overcast,180,2013-01-11 10:16:00
4:36 AM,35.2,34.7,98,29.49,5.0,South,4.6,-,N/A,,Overcast,170,2013-01-11 10:36:00
4:55 AM,35.2,34.7,98,29.49,5.0,Calm,Calm,-,N/A,,Overcast,0,2013-01-11 10:55:00
5:16 AM,35.2,34.7,98,29.49,5.0,Calm,Calm,-,N/A,,Overcast,0,2013-01-11 11:16:00
5:35 AM,35.1,34.7,99,29.49,4.0,Calm,Calm,-,N/A,,Overcast,0,2013-01-11 11:35:00
6:16 AM,34.9,34.7,99,29.47,3.0,Calm,Calm,-,N/A,,Overcast,0,2013-01-11 12:16:00
6:36 AM,34.2,34.0,99,29.46,3.0,SSE,5.8,-,N/A,,Overcast,150,2013-01-11 12:36:00
6:55 AM,34.7,34.5,99,29.46,2.5,SSE,5.8,-,N/A,,Overcast,160,2013-01-11 12:55:00
7:16 AM,34.9,34.7,99,29.45,3.0,South,4.6,-,N/A,,Overcast,170,2013-01-11 13:16:00
7:36 AM,34.9,34.7,99,29.46,4.0,South,3.5,-,N/A,Rain,Light Rain,170,2013-01-11 13:36:00
7:55 AM,34.9,34.7,99,29.46,5.0,South,3.5,-,N/A,,Overcast,180,2013-01-11 13:55:00
8:15 AM,34.7,34.7,100,29.46,4.0,SSE,4.6,-,N/A,,Overcast,150,2013-01-11 14:15:00
8:36 AM,34.5,34.2,99,29.46,4.0,SE,5.8,-,N/A,,Overcast,140,2013-01-11 14:36:00
8:56 AM,34.2,34.0,99,29.46,2.5,SSE,6.9,-,N/A,,Overcast,150,2013-01-11 14:56:00
9:15 AM,34.5,34.5,100,29.47,1.0,SE,4.6,-,N/A,,Overcast,140,2013-01-11 15:15:00
9:36 AM,34.9,34.9,100,29.45,0.8,SSE,5.8,-,N/A,,Overcast,150,2013-01-11 15:36:00
9:55 AM,34.7,34.7,100,29.45,1.0,SSE,3.5,-,N/A,,Overcast,160,2013-01-11 15:55:00
10:16 AM,34.9,34.9,100,29.44,3.0,SE,3.5,-,N/A,,Overcast,140,2013-01-11 16:16:00
10:35 AM,34.9,34.9,100,29.44,5.0,SE,4.6,-,N/A,,Overcast,140,2013-01-11 16:35:00
10:56 AM,35.6,35.6,100,29.44,10.0,SSE,3.5,-,N/A,,Overcast,160,2013-01-11 16:56:00
11:16 AM,36.1,35.6,98,29.43,7.0,South,6.9,-,N/A,,Overcast,170,2013-01-11 17:16:00
11:35 AM,36.1,35.1,96,29.42,10.0,SSE,4.6,-,N/A,,Overcast,150,2013-01-11 17:35:00
11:56 AM,36.3,35.1,95,29.42,10.0,South,6.9,-,N/A,,Overcast,180,2013-01-11 17:56:00
12:16 PM,36.5,35.2,95,29.41,4.0,South,5.8,-,N/A,,Overcast,180,2013-01-11 18:16:00
12:36 PM,36.5,35.4,96,29.39,7.0,Calm,Calm,-,N/A,,Overcast,0,2013-01-11 18:36:00
12:56 PM,36.0,34.7,95,29.39,10.0,SSE,4.6,-,N/A,,Overcast,160,2013-01-11 18:56:00
1:15 PM,36.1,35.1,96,29.39,10.0,South,4.6,-,N/A,,Overcast,170,2013-01-11 19:15:00
2:16 PM,36.5,35.1,95,29.37,10.0,South,4.6,-,N/A,,Overcast,170,2013-01-11 20:16:00
2:36 PM,36.1,35.1,96,29.36,7.0,SE,3.5,-,N/A,,Overcast,140,2013-01-11 20:36:00
2:55 PM,35.6,34.7,97,29.36,4.0,SSE,5.8,-,N/A,,Overcast,150,2013-01-11 20:55:00
3:15 PM,35.8,35.2,98,29.36,5.0,SSE,4.6,-,N/A,,Overcast,150,2013-01-11 21:15:00
3:36 PM,35.6,35.1,98,29.37,5.0,SSE,3.5,-,N/A,,Overcast,160,2013-01-11 21:36:00
3:56 PM,35.4,34.7,97,29.36,3.0,SSE,4.6,-,N/A,,Overcast,150,2013-01-11 21:56:00
4:15 PM,34.9,34.5,99,29.35,2.0,Calm,Calm,-,N/A,,Overcast,0,2013-01-11 22:15:00
4:35 PM,34.7,34.3,99,29.36,2.5,SSE,3.5,-,N/A,,Overcast,150,2013-01-11 22:35:00
4:55 PM,34.5,34.3,99,29.36,3.0,SE,5.8,-,N/A,,Overcast,140,2013-01-11 22:55:00
5:16 PM,33.8,33.8,100,29.34,1.0,SE,3.5,-,N/A,,Overcast,140,2013-01-11 23:16:00
5:35 PM,34.2,34.2,100,29.34,2.5,Calm,Calm,-,N/A,,Overcast,0,2013-01-11 23:35:00
5:55 PM,33.8,33.8,100,29.36,1.0,Calm,Calm,-,N/A,,Overcast,0,2013-01-11 23:55:00
6:16 PM,34.0,34.2,100,29.36,2.5,Calm,Calm,-,N/A,,Overcast,0,2013-01-12 00:16:00
6:35 PM,32.7,32.7,100,29.37,2.0,NW,10.4,16.1,N/A,,Drizzle,310,2013-01-12 00:35:00
6:55 PM,32.0,32.0,100,29.38,1.5,NW,12.7,-,N/A,,Overcast,310,2013-01-12 00:55:00
7:16 PM,-9999,-9999,N/A,29.39,1.8,NW,11.5,16.1,N/A,,Overcast,320,2013-01-12 01:16:00
7:35 PM,29.8,30.0,100,29.39,1.8,NW,16.1,19.6,N/A,,Overcast,320,2013-01-12 01:35:00
7:55 PM,27.7,27.7,100,29.41,2.0,NW,15.0,21.9,N/A,,Overcast,320,2013-01-12 01:55:00
8:16 PM,27.1,27.0,99,29.40,2.5,NW,13.8,18.4,N/A,,Overcast,320,2013-01-12 02:16:00
8:35 PM,25.9,25.5,99,29.41,7.0,NW,16.1,23.0,N/A,,Overcast,320,2013-01-12 02:35:00
8:55 PM,24.8,23.9,96,29.42,10.0,NW,18.4,23.0,N/A,,Overcast,320,2013-01-12 02:55:00
9:16 PM,23.5,22.5,96,29.43,10.0,NW,13.8,-,N/A,,Overcast,320,2013-01-12 03:16:00
9:35 PM,22.8,21.7,96,29.44,10.0,NW,12.7,21.9,N/A,,Overcast,320,2013-01-12 03:35:00
9:55 PM,22.3,20.8,94,29.45,10.0,NW,15.0,21.9,N/A,,Overcast,320,2013-01-12 03:55:00
10:16 PM,22.1,20.3,93,29.45,10.0,NW,13.8,-,N/A,,Overcast,320,2013-01-12 04:16:00
10:35 PM,21.6,20.1,94,29.47,5.0,NW,12.7,18.4,N/A,,Overcast,320,2013-01-12 04:35:00
10:56 PM,21.2,20.3,96,29.46,2.5,NW,9.2,-,N/A,,Overcast,320,2013-01-12 04:56:00
11:15 PM,20.3,19.4,96,29.46,4.0,NW,10.4,-,N/A,,Overcast,320,2013-01-12 05:15:00
11:36 PM,20.7,19.4,95,29.48,7.0,NW,18.4,24.2,N/A,,Overcast,320,2013-01-12 05:36:00
11:56 PM,19.8,16.7,88,29.49,10.0,NW,18.4,21.9,N/A,,Overcast,320,2013-01-12 05:56:00